Tracking 28794 objects as of 19-Apr-2024
HD Live streaming from Space Station
objects crossing your sky now

STARLINK-2630

Track STARLINK-2630 now!
10-day predictions
STARLINK-2630 is classified as:


NORAD ID: 48381
Int'l Code: 2021-038AE
Perigee: 553.5 km
Apogee: 555.2 km
Inclination: 53.1 °
Period: 95.6 minutes
Semi major axis: 6925 km
RCS: Unknown
Launch date: May 4, 2021
Source: United States (US)
Launch site: AIR FORCE EASTERN TEST RANGE (AFETR)
Your satellite tracking list
Your tracking list is empty




NASA's NSSDC Master Catalog

Two Line Element Set (TLE):
1 48381U 21038AE  24110.58314414 -.00000257  00000-0  16640-5 0  9993
2 48381  53.0533 205.1336 0001216 110.3585 249.7534 15.06399242163306
Source of the keplerian elements: AFSPC